Previsão horária em Aligarh

Hoje, 18 Janeiro, Segunda-feira

Tempo Temperatura Precipitação Vento Pressão Humidade
00:00 +12°C° 0 mm 2 m/s 745 mmHg 56%
01:00 +12°C° 0 mm 2 m/s 745 mmHg 58%
02:00 +10°C° 0 mm 2 m/s 745 mmHg 60%
03:00 +10°C° 0 mm 2 m/s 745 mmHg 60%
04:00 +10°C° 0 mm 2 m/s 745 mmHg 61%
05:00 +12°C° 0 mm 3 m/s 745 mmHg 56%
06:00 +13°C° 0 mm 3 m/s 745 mmHg 58%
07:00 +13°C° 0 mm 3 m/s 746 mmHg 60%
08:00 +13°C° 0 mm 3 m/s 746 mmHg 61%
09:00 +14°C° 0 mm 3 m/s 746 mmHg 62%
10:00 +16°C° 0 mm 3 m/s 746 mmHg 63%
11:00 +17°C° 0 mm 3 m/s 746 mmHg 64%
12:00 +18°C° 0 mm 3 m/s 746 mmHg 60%
13:00 +19°C° 0 mm 3 m/s 745 mmHg 55%
14:00 +21°C° 0 mm 3 m/s 744 mmHg 51%
15:00 +20°C° 0 mm 2 m/s 744 mmHg 54%
16:00 +19°C° 0 mm 2 m/s 744 mmHg 58%
17:00 +19°C° 0 mm 1 m/s 743 mmHg 62%
18:00 +18°C° 0 mm 1 m/s 743 mmHg 65%
19:00 +16°C° 0 mm 1 m/s 744 mmHg 69%
20:00 +14°C° 0 mm 1 m/s 744 mmHg 72%
21:00 +14°C° 0 mm 1 m/s 744 mmHg 73%
22:00 +14°C° 0 mm 1 m/s 744 mmHg 74%
23:00 +14°C° 0 mm 2 m/s 743 mmHg 75%

Amanhã, 19 Janeiro, Terça-feira

Tempo Temperatura Precipitação Vento Pressão Humidade
00:00 +13°C° 0 mm 2 m/s 743 mmHg 77%
01:00 +13°C° 0 mm 1 m/s 743 mmHg 79%
02:00 +12°C° 0 mm 1 m/s 742 mmHg 80%
03:00 +12°C° 0 mm 1 m/s 742 mmHg 81%
04:00 +12°C° 0 mm 1 m/s 742 mmHg 81%
05:00 +12°C° 0 mm 1 m/s 742 mmHg 81%
06:00 +12°C° 0 mm 1 m/s 743 mmHg 77%
07:00 +13°C° 0 mm 1 m/s 743 mmHg 74%
08:00 +14°C° 0 mm 2 m/s 744 mmHg 70%
09:00 +17°C° 0 mm 2 m/s 744 mmHg 62%
10:00 +19°C° 0 mm 2 m/s 744 mmHg 54%
11:00 +23°C° 0 mm 2 m/s 744 mmHg 47%
12:00 +24°C° 0 mm 2 m/s 744 mmHg 44%
13:00 +25°C° 0 mm 2 m/s 743 mmHg 42%
14:00 +26°C° 0 mm 2 m/s 742 mmHg 40%
15:00 +24°C° 0 mm 2 m/s 742 mmHg 46%
16:00 +23°C° 0 mm 2 m/s 741 mmHg 51%
17:00 +20°C° 0 mm 2 m/s 741 mmHg 57%
18:00 +19°C° 0 mm 2 m/s 742 mmHg 60%
19:00 +18°C° 0 mm 2 m/s 742 mmHg 62%
20:00 +16°C° 0 mm 2 m/s 742 mmHg 65%
21:00 +16°C° 0 mm 2 m/s 742 mmHg 66%
22:00 +15°C° 0 mm 2 m/s 743 mmHg 67%
23:00 +15°C° 0 mm 2 m/s 743 mmHg 68%

Depois de amanhã, 20 Janeiro, Quarta-feira

Tempo Temperatura Precipitação Vento Pressão Humidade
00:00 +14°C° 0 mm 2 m/s 742 mmHg 67%
01:00 +14°C° 0 mm 2 m/s 742 mmHg 66%
02:00 +13°C° 0 mm 2 m/s 742 mmHg 65%
03:00 +13°C° 0 mm 2 m/s 742 mmHg 64%
04:00 +11°C° 0 mm 3 m/s 742 mmHg 63%
05:00 +11°C° 0 mm 3 m/s 741 mmHg 62%
06:00 +11°C° 0 mm 3 m/s 742 mmHg 60%
07:00 +12°C° 0 mm 3 m/s 743 mmHg 59%
08:00 +12°C° 0 mm 3 m/s 743 mmHg 57%
09:00 +16°C° 0 mm 3 m/s 743 mmHg 50%
10:00 +19°C° 0 mm 4 m/s 744 mmHg 44%
11:00 +21°C° 0 mm 4 m/s 744 mmHg 37%
12:00 +22°C° 0 mm 4 m/s 743 mmHg 35%
13:00 +23°C° 0 mm 4 m/s 742 mmHg 33%
14:00 +25°C° 0 mm 5 m/s 742 mmHg 31%
15:00 +22°C° 0 mm 4 m/s 742 mmHg 37%
16:00 +21°C° 0 mm 3 m/s 742 mmHg 42%
17:00 +19°C° 0 mm 3 m/s 741 mmHg 48%
18:00 +18°C° 0 mm 3 m/s 742 mmHg 49%
19:00 +16°C° 0 mm 3 m/s 742 mmHg 49%
20:00 +14°C° 0 mm 3 m/s 743 mmHg 50%
21:00 +14°C° 0 mm 3 m/s 743 mmHg 49%
22:00 +13°C° 0 mm 3 m/s 743 mmHg 48%
23:00 +12°C° 0 mm 3 m/s 743 mmHg 48%

21 Janeiro, Quinta-feira

Tempo Temperatura Precipitação Vento Pressão Humidade
00:00 +12°C° 0 mm 3 m/s 742 mmHg 46%
01:00 +12°C° 0 mm 3 m/s 742 mmHg 45%
02:00 +11°C° 0 mm 3 m/s 742 mmHg 43%
03:00 +11°C° 0 mm 3 m/s 742 mmHg 42%
04:00 +10°C° 0 mm 3 m/s 741 mmHg 41%
05:00 +10°C° 0 mm 3 m/s 741 mmHg 40%
06:00 +10°C° 0 mm 3 m/s 742 mmHg 41%
07:00 +11°C° 0 mm 3 m/s 742 mmHg 42%
08:00 +11°C° 0 mm 3 m/s 743 mmHg 44%
09:00 +14°C° 0 mm 3 m/s 743 mmHg 40%
10:00 +18°C° 0 mm 3 m/s 743 mmHg 35%
11:00 +21°C° 0 mm 4 m/s 744 mmHg 31%
12:00 +22°C° 0 mm 4 m/s 743 mmHg 29%
13:00 +23°C° 0 mm 4 m/s 743 mmHg 28%
14:00 +25°C° 0 mm 5 m/s 742 mmHg 26%
15:00 +22°C° 0 mm 4 m/s 742 mmHg 32%
16:00 +20°C° 0 mm 3 m/s 742 mmHg 37%
17:00 +19°C° 0 mm 2 m/s 742 mmHg 42%
18:00 +17°C° 0 mm 2 m/s 742 mmHg 42%
19:00 +16°C° 0 mm 2 m/s 742 mmHg 42%
20:00 +15°C° 0 mm 2 m/s 743 mmHg 43%
21:00 +14°C° 0 mm 2 m/s 743 mmHg 43%
22:00 +14°C° 0 mm 2 m/s 743 mmHg 43%
23:00 +13°C° 0 mm 1 m/s 743 mmHg 43%

22 Janeiro, Sexta-feira

Tempo Temperatura Precipitação Vento Pressão Humidade
00:00 +13°C° 0 mm 1 m/s 743 mmHg 43%
01:00 +13°C° 0 mm 1 m/s 743 mmHg 43%
02:00 +12°C° 0 mm 1 m/s 743 mmHg 43%
03:00 +12°C° 0 mm 1 m/s 743 mmHg 44%
04:00 +11°C° 0 mm 1 m/s 743 mmHg 45%
05:00 +11°C° 0 mm 1 m/s 743 mmHg 46%
06:00 +11°C° 0 mm 0 m/s 743 mmHg 46%
07:00 +12°C° 0 mm 0 m/s 744 mmHg 46%
08:00 +13°C° 0 mm 0 m/s 744 mmHg 47%
09:00 +15°C° 0 mm 0 m/s 744 mmHg 41%
10:00 +18°C° 0 mm 0 m/s 744 mmHg 36%
11:00 +21°C° 0 mm 0 m/s 745 mmHg 30%
12:00 +23°C° 0 mm 1 m/s 744 mmHg 28%
13:00 +24°C° 0 mm 1 m/s 743 mmHg 26%
14:00 +25°C° 0 mm 1 m/s 743 mmHg 24%
15:00 +24°C° 0 mm 1 m/s 742 mmHg 28%
16:00 +20°C° 0 mm 0 m/s 742 mmHg 33%
17:00 +18°C° 0 mm 0 m/s 741 mmHg 37%
18:00 +17°C° 0 mm 0 m/s 742 mmHg 38%
19:00 +16°C° 0 mm 0 m/s 742 mmHg 40%
20:00 +14°C° 0 mm 0 m/s 743 mmHg 41%
21:00 +14°C° 0 mm 0 m/s 743 mmHg 41%
22:00 +15°C° 0 mm 1 m/s 743 mmHg 42%
23:00 +14°C° 0 mm 1 m/s 743 mmHg 42%

23 Janeiro, Sábado

Tempo Temperatura Precipitação Vento Pressão Humidade
00:00 +14°C° 0 mm 1 m/s 743 mmHg 43%
01:00 +14°C° 0 mm 1 m/s 742 mmHg 43%
02:00 +13°C° 0 mm 1 m/s 742 mmHg 44%
03:00 +13°C° 0 mm 1 m/s 742 mmHg 45%
04:00 +12°C° 0 mm 1 m/s 742 mmHg 46%
05:00 +12°C° 0 mm 1 m/s 741 mmHg 47%
06:00 +12°C° 0 mm 1 m/s 742 mmHg 48%
07:00 +13°C° 0 mm 2 m/s 743 mmHg 49%
08:00 +14°C° 0 mm 2 m/s 743 mmHg 50%
09:00 +16°C° 0 mm 2 m/s 743 mmHg 44%
10:00 +19°C° 0 mm 2 m/s 743 mmHg 39%
11:00 +22°C° 0 mm 3 m/s 743 mmHg 34%
12:00 +24°C° 0 mm 3 m/s 743 mmHg 32%
13:00 +25°C° 0 mm 3 m/s 742 mmHg 31%
14:00 +26°C° 0 mm 3 m/s 741 mmHg 30%
15:00 +24°C° 0 mm 3 m/s 741 mmHg 35%
16:00 +23°C° 0 mm 2 m/s 740 mmHg 40%
17:00 +20°C° 0 mm 2 m/s 740 mmHg 45%
18:00 +19°C° 0 mm 2 m/s 740 mmHg 45%
19:00 +18°C° 0 mm 3 m/s 741 mmHg 45%
20:00 +17°C° 0 mm 3 m/s 741 mmHg 45%
21:00 +16°C° 0 mm 3 m/s 741 mmHg 47%
22:00 +15°C° 0 mm 4 m/s 741 mmHg 49%
23:00 +14°C° 0 mm 4 m/s 741 mmHg 50%
Mostrar mais

Necessitamos do seu Consentimento

A Meteoprog e os seus Fornecedores de Serviços podem armazenar e aceder a dados pessoais como cookies, identificadores do dispositivo ou outras tecnologias semelhantes existentes no seu dispositivo e processar estes dados para personalizar conteúdos e anúncios, assim como funcionalidades nas redes sociais e análise de tráfego.

  • Armazenar e/ou aceder a informações no seu dispositivo

    Os cookies, identificadores do dispositivo ou outras informações podem ser armazenados ou acedidos no seu dispositivo, para os fins acima indicados.

  • Anúncios e conteúdos personalizados, medição de anúncios e conteúdos, dados sobre o público-alvo e desenvolvimento de produtos

    Os anúncios e os conteúdos podem ser personalizados com base num perfil. Podem ser adicionados dados adicionais para uma maior personalização dos anúncios e dos conteúdos. A eficácia dos anúncios e dos conteúdos pode ser medida. Podem ser obtidas informações sobre o público que visualizou os anúncios e os conteúdos. Estes dados podem ser usados para desenvolver ou melhorar sistemas, softwares ou a experiência do utilizador.

Ao clicar em "Eu concordo”, permitirá o uso de cookies, identificadores do dispositivo e web beacons mencionados ou outras tecnologias semelhantes. As configurações do navegador do seu dispositivo podem ser alteradas.

Para certos fins, podem ser invocados interesses legítimos ao invés de consentimento. Pode ler mais informação sobre este assunto na nossa Política de Privacidade e Cookies.